METEOR 2-2

Satellite information

Favourite Embed

Satellite Type and Status

PAYLOADIN ORBIT

Key statistics

Satellite METEOR 2-2 at a glance.

Uptime

17769

Days in orbit

Revolutions

≈ 14.0

Per day

Orbit

LEO

Low Earth Orbit

Inclination

81.3

Latest

Satellite identification and parameters

Extended collection of information and parameters for METEOR 2-2.

Object identification

Identified? True

Debris? False

Object name: METEOR 2-2

International designator: 1977-002A

Object number (NORAD): 9661

Object ID (CCSDS): 9661

Country: COMMONWEALTH OF INDEPENDENT STATES (CIS)

Current information (Y/N): Y

RCS size: LARGE

Orbital parameters

Period: 102.553 minutes

Inclination: 81.2675 deg

SMA: 7257.608 km

Apoapsis: 887.692 km

Periapsis: 871.254 km

RAAN: 13.1784 deg

Eccentricy: 0.00113249

Argument of periapsis: 87.014 deg

Mean anomaly: 273.2323 deg

Mean motion: 14.04146811 rev/day

Mean motion (dot): 0.00000178 rev/day2

B* drag term: 0.00010426689 1/REarth

Two-line elements (TLE)

Creation date: Aug. 31, 2025, 2:26 a.m.

Reference frame: TEME

Reference center: EARTH

Epoch: Aug. 30, 2025, 9:04 p.m. UTC

TLE line 0: 0 METEOR 2-2

TLE line 1: 1 09661U 77002A 25242.87815740 .00000178 00000-0 10427-3 0 9996

TLE line 2: 2 09661 81.2675 13.1784 0011325 87.0140 273.2323 14.04146811489596

Live tracking on map

Real-time ground track for satellite METEOR 2-2.

In-orbit conjunctions

A list of the most updated potential collisions computed for object METEOR 2-2.

Target Orbit TCA Probability of collision Miss distance Type
THOR ABLESTAR DEB LEO 2025-05-15 01:51:25 0.0006260059 851.0 (m) DEBRIS
DMSP 5D-2 F13 DEB SSO 2025-04-11 22:06:51 0.0005777975 168.0 (m) DEBRIS
FENGYUN 1C DEB SSO 2025-02-18 08:37:37 0.0001174307 476.0 (m) DEBRIS
SL-14 DEB LEO 2024-11-23 17:08:59 0.0001006045 270.0 (m) DEBRIS
VANGUARD 3 MEO 2024-08-25 10:09:53 0.0001789543 989.0 (m) PAYLOAD

Associated space launch

Second generation soviet meteorological satellite

METEOR 2-2 was lifted into orbit during the mission ‘Vostok 8A92M | Meteor-2 2’, on board a Vostok 8A92M space rocket.

The launch took place on Jan. 6, 1977, 11:17 p.m. from 43/3 (43L).

For more information about the launch, click the button.

Launch to space Vostok 8A92M | Meteor-2 2
Vostok 8A92M | Meteor-2 2

Agency: N/A

Status: Launch Successful

Launch date: Jan. 6, 1977, 11:17 p.m. UTC

Rocket: Vostok 8A92M

Launch pad: 43/3 (43L)

Location: Plesetsk Cosmodrome, Russian Federation

...

Latest news about this satellite

There are no fresh news available about this satellite. Check back as we update our databases every day.


Newsletter sign-up

Weekly statistics, charts and insights to help you stay on top of the space industry.